Skip Page Navigation
NASA JPL Caltech
NASA Logo - Jet Propulsion Laboratory + View the NASA Portal
+ Center for Near-Earth Object Studies
JPL Home Earth Solar System Stars & Galaxies Technology
JPL Solar System Dynamics
BODIES ORBITS EPHEMERIDES TOOLS PHYSICAL DATA DISCOVERY FAQ SITE MAP
JPL Small-Body Database Browser
Search: [ help ]  
212881 (2007 VC235)
Classification: Outer Main-belt Asteroid          SPK-ID: 2212881
Ephemeris | Orbit Diagram | Orbital Elements | Mission Design | Physical Parameters | Discovery Circumstances | Close-Approach Data ]

[ hide orbit diagram ]

For accurate long-term ephemerides, please instead use our Horizons system.This orbit viewer was implemented using two-body methods, and hence should not be used for determining accurate long-term trajectories (over several years or decades) or planetary encounter circumstances.


[ revert to old Java-based viewer ]

Orbital Elements at Epoch 2459000.5 (2020-May-31.0) TDB
Reference: JPL 10 (heliocentric ecliptic J2000)
 Element Value Uncertainty (1-sigma)   Units 
e .1161689173623152 6.7326e-08  
a 3.221098861859225 4.8559e-08 au
q 2.846907294360054 2.2117e-07 au
i 5.456233626590543 7.7371e-06 deg
node 235.3619612342703 9.2112e-05 deg
peri 254.7537420918981 9.9767e-05 deg
M 9.043407598967885 3.9035e-05 deg
tp 2458947.456262985063
(2020-Apr-07.95626299)
0.00022858 TDB
period 2111.565260815697
5.78
4.7749e-05
1.307e-07
d
yr
n .1704896394539718 3.8553e-09 deg/d
Q 3.595290429358398 5.4201e-08 au
  Orbit Determination Parameters
   # obs. used (total)      158  
   data-arc span      6682 days (18.29 yr)  
   first obs. used      2001-10-16  
   last obs. used      2020-02-01  
   planetary ephem.      DE431  
   SB-pert. ephem.      SB431-N16  
   condition code      0  
   norm. resid. RMS      .68911  
   source      ORB  
   producer      Otto Matic  
   solution date      2020-Feb-25 02:51:35  

Additional Information
 Earth MOID = 1.8681 au 
 Jupiter MOID = 1.52435 au 
 T_jup = 3.171 
[ show covariance matrix ]

Ephemeris | Orbit Diagram | Orbital Elements | Mission Design | Physical Parameters | Discovery Circumstances | Close-Approach Data ]

Physical Parameter Table
Parameter Symbol Value Units Sigma Reference Notes
absolute magnitude H 15.8   n/a MPO422828  

212881 (2007 VC235)          Discovered 2007-Nov-09 by Spacewatch at Kitt Peak
Reference: 20090409/Numbers.arcLast Updated: 2009-04-10

[ show close-approach data ]
Alternate Designations
 2007 VC235 = 2001 UO224 = 2001 WZ56 
Ephemeris | Orbit Diagram | Orbital Elements | Mission Design | Physical Parameters | Discovery Circumstances | Close-Approach Data ]
ABOUT SSD CREDITS/AWARDS PRIVACY/COPYRIGHT GLOSSARY LINKS
FirstGov 2020-Aug-05 19:32 UT
(server date/time)  
NASA Home Page
Site Manager:   Ryan S. Park
Webmaster  Alan B. Chamberlin